EST,Max TemperatureF,Mean TemperatureF,Min TemperatureF,Max Dew PointF,MeanDew PointF,Min DewpointF,Max Humidity, Mean Humidity, Min Humidity, Max Sea Level PressureIn, Mean Sea Level PressureIn, Min Sea Level PressureIn, Max VisibilityMiles, Mean VisibilityMiles, Min VisibilityMiles, Max Wind SpeedMPH, Mean Wind SpeedMPH, Max Gust SpeedMPH,PrecipitationIn, CloudCover, Events, WindDirDegrees
2011-12-1,36,28,21,27,23,18,88,78,64,30.34,30.29,30.21,10,10,5,8,4,,0.02,2,,189
2011-12-2,37,34,30,34,28,25,93,79,62,30.50,30.42,30.27,10,9,6,13,5,,0.00,4,Rain,106
2011-12-3,46,38,30,36,32,27,89,74,59,30.44,30.30,30.08,10,9,5,17,10,,0.01,4,Rain,155
2011-12-4,51,45,39,46,41,33,93,85,56,30.24,30.09,30.00,10,7,2,21,14,28,0.29,8,Rain,235
2011-12-5,39,37,35,37,34,28,100,86,73,30.27,30.22,30.16,10,7,2,15,5,,0.09,8,Rain,18
2011-12-6,35,30,26,28,23,21,85,72,64,30.28,30.22,30.16,10,10,10,14,10,21,0.00,7,,1
2011-12-7,37,31,25,27,22,16,86,70,50,30.15,30.06,29.99,10,10,10,16,7,21,0.00,5,,265
2011-12-8,35,29,23,26,23,20,88,77,64,30.25,30.20,30.12,10,9,5,12,9,,0.00,7,,223
2011-12-9,32,26,19,28,24,10,93,83,63,30.43,30.25,30.17,10,5,1,13,8,,0.04,7,Snow,272
2011-12-10,24,18,12,11,8,6,77,65,46,30.56,30.51,30.43,10,10,10,13,9,,0.00,0,,223
2011-12-11,37,28,19,23,18,9,74,67,57,30.55,30.49,30.45,10,10,10,14,9,,0.00,0,,187
2011-12-12,43,33,23,25,21,16,85,64,47,30.48,30.44,30.41,10,10,7,8,5,,0.00,1,,182
2011-12-13,41,34,28,36,32,24,93,82,75,30.46,30.39,30.31,10,5,1,8,3,,0.01,8,Rain,158
2011-12-14,55,46,37,52,44,36,100,91,87,30.32,30.06,29.79,9,4,0,21,9,30,1.38,8,Fog-Rain,173
2011-12-15,57,46,35,54,43,25,94,81,67,30.18,29.82,29.68,10,9,3,28,18,38,0.21,8,Rain,246
2011-12-16,35,32,28,27,23,21,76,69,64,30.38,30.31,30.20,10,10,10,15,10,,0.00,7,,287
2011-12-17,32,30,28,27,25,23,93,84,75,30.33,30.27,30.18,10,5,1,12,7,,0.02,8,Snow,235
2011-12-18,39,34,28,32,28,25,89,80,67,30.26,30.17,30.00,10,7,4,15,9,,0.01,4,,216
2011-12-19,52,46,37,40,36,30,77,72,63,30.17,30.01,29.93,10,10,8,17,13,21,0.00,7,,270
2011-12-20,39,37,35,37,31,25,100,82,67,30.20,30.04,29.83,10,8,2,12,7,,0.01,8,Rain,100
2011-12-21,44,42,39,43,41,38,100,93,86,29.97,29.74,29.65,9,3,0,16,7,22,0.02,8,Fog-Rain,240
2011-12-22,42,39,35,37,35,32,93,83,73,30.17,30.07,29.98,10,9,6,13,7,,0.04,7,Rain,272
2011-12-23,35,32,28,30,23,18,87,70,52,30.37,30.26,30.15,10,10,3,16,11,23,0.00,8,Snow,292
2011-12-24,37,31,25,27,24,22,88,78,59,30.38,30.31,30.22,10,9,6,17,11,23,0.00,2,Snow,216
2011-12-25,42,37,32,29,27,26,82,70,58,30.29,30.15,30.06,10,10,10,18,14,28,0.00,4,,256
2011-12-26,45,36,28,30,28,24,85,70,52,30.35,30.21,29.96,10,10,10,17,8,,0.00,2,,196
2011-12-27,36,34,30,33,30,22,96,87,69,29.92,29.63,29.48,10,4,0,23,8,36,0.34,8,Fog-Rain-Snow,261
2011-12-28,30,28,27,23,20,17,78,70,64,30.07,30.01,29.90,10,10,10,23,13,32,0.00,7,,265
2011-12-29,44,37,30,37,31,24,86,79,73,29.92,29.71,29.57,10,10,8,17,10,23,0.00,6,Rain,198
2011-12-30,46,39,32,45,39,30,93,90,87,29.76,29.59,29.46,10,6,2,13,7,,0.30,7,Rain,175
2011-12-31,41,38,35,39,34,30,93,85,73,30.04,29.92,29.68,10,9,4,18,11,24,0.01,8,,234